Location: Prairie State College
(41.5244°N, 87.6382°W)
Time: 12:03:22
(UTC-05:00)

ARGOS Delta rocket - Visible Passes

Search period start: 28 September 2016 00:00
Search period end: 08 October 2016 00:00
Orbit: 635 x 839 km, 96.5° (Epoch: 27 September)

Date Brightness Start Highest point End Pass type
(mag) Time Alt. Az. Time Alt. Az. Time Alt. Az.
28 Sep 6.9 02:32:12 10° NE 02:32:32 11° NE 02:32:32 11° NE visible
28 Sep 5.1 04:09:24 10° N 04:12:08 32° NNW 04:12:08 32° NNW visible
29 Sep 5.9 03:24:25 10° NNE 03:26:36 26° NNE 03:26:36 26° NNE visible
29 Sep 5.7 05:04:10 10° NNW 05:06:12 17° NW 05:06:12 17° NW visible
30 Sep 6.8 02:40:21 10° NE 02:41:04 13° NE 02:41:04 13° NE visible
30 Sep 5.3 04:18:10 10° N 04:20:40 28° NNW 04:20:40 28° NNW visible
01 Oct 5.8 03:33:01 10° NNE 03:35:09 26° NNE 03:35:09 26° NNE visible
01 Oct 5.9 05:13:18 10° NNW 05:14:45 14° NW 05:14:45 14° NW visible
02 Oct 6.7 02:48:39 10° NE 02:49:37 14° NE 02:49:37 14° NE visible
02 Oct 5.5 04:26:58 10° N 04:29:13 24° NNW 04:29:13 24° NNW visible
03 Oct 5.8 03:41:39 10° NNE 03:43:42 25° NNE 03:43:42 25° NNE visible
03 Oct 6.1 05:22:38 10° NW 05:23:18 11° NW 05:23:18 11° NW visible
04 Oct 6.6 02:57:05 10° NNE 02:58:10 16° NE 02:58:10 16° NE visible
04 Oct 5.7 04:35:49 10° N 04:37:46 20° NNW 04:37:46 20° NNW visible
05 Oct 5.9 03:50:21 10° N 03:52:14 23° N 03:52:14 23° N visible
06 Oct 6.6 03:05:35 10° NNE 03:06:42 16° NNE 03:06:42 16° NNE visible
06 Oct 5.9 04:44:44 10° NNW 04:46:19 17° NNW 04:46:19 17° NNW visible
07 Oct 5.9 03:59:04 10° N 04:00:47 21° N 04:00:47 21° N visible
